• In Hungary
  • List of Countries
  • For 7 days
  • Water Temperature
  • Satellite Maps
  • Weather Map
  • News
  • Weather Widgets
  • user-avatar
    Login

    Hourly Weather Fakuoka

    Today, 23 September, Sunday

    Time Temperature Precipitation Wind Pressure Humidity
    00:00 +24°C° 0 mm 1 mps 741 mmHg 72%
    01:00 +24°C° 0 mm 1 mps 741 mmHg 72%
    02:00 +24°C° 0 mm 1 mps 741 mmHg 72%
    03:00 +23°C° 0 mm 2 mps 741 mmHg 74%
    04:00 +23°C° 0 mm 2 mps 742 mmHg 74%
    05:00 +23°C° 0 mm 1 mps 742 mmHg 75%
    06:00 +23°C° 0 mm 1 mps 742 mmHg 75%
    07:00 +24°C° 0 mm 1 mps 742 mmHg 70%
    08:00 +25°C° 0 mm 2 mps 742 mmHg 65%
    09:00 +26°C° 0 mm 2 mps 742 mmHg 60%
    10:00 +27°C° 0 mm 1 mps 742 mmHg 53%
    11:00 +29°C° 0 mm 1 mps 742 mmHg 47%
    12:00 +30°C° 0 mm 1 mps 742 mmHg 41%
    13:00 +30°C° 0 mm 1 mps 742 mmHg 41%
    14:00 +30°C° 0 mm 1 mps 741 mmHg 41%
    15:00 +30°C° 0 mm 1 mps 741 mmHg 41%
    16:00 +29°C° 0 mm 1 mps 741 mmHg 45%
    17:00 +28°C° 0 mm 1 mps 741 mmHg 49%
    18:00 +27°C° 0 mm 1 mps 741 mmHg 53%
    19:00 +27°C° 0 mm 1 mps 741 mmHg 54%
    20:00 +26°C° 0 mm 1 mps 741 mmHg 55%
    21:00 +26°C° 0 mm 1 mps 741 mmHg 57%
    22:00 +26°C° 0 mm 1 mps 741 mmHg 57%
    23:00 +25°C° 0 mm 1 mps 742 mmHg 58%

    Tomorrow, 24 September, Monday

    Time Temperature Precipitation Wind Pressure Humidity
    00:00 +25°C° 0 mm 1 mps 742 mmHg 59%
    01:00 +25°C° 0 mm 1 mps 742 mmHg 60%
    02:00 +25°C° 0 mm 1 mps 742 mmHg 61%
    03:00 +24°C° 0 mm 1 mps 742 mmHg 62%
    04:00 +24°C° 0 mm 1 mps 742 mmHg 64%
    05:00 +24°C° 0 mm 2 mps 742 mmHg 65%
    06:00 +24°C° 0 mm 2 mps 742 mmHg 67%
    07:00 +24°C° 0 mm 2 mps 742 mmHg 67%
    08:00 +25°C° 0 mm 3 mps 742 mmHg 66%
    09:00 +25°C° 0 mm 4 mps 742 mmHg 66%
    10:00 +25°C° 0 mm 3 mps 742 mmHg 65%
    11:00 +25°C° 0 mm 3 mps 742 mmHg 65%
    12:00 +25°C° 0 mm 3 mps 742 mmHg 64%
    13:00 +25°C° 0 mm 3 mps 742 mmHg 64%
    14:00 +24°C° 0 mm 3 mps 742 mmHg 63%
    15:00 +24°C° 0 mm 3 mps 742 mmHg 63%
    16:00 +24°C° 0 mm 3 mps 741 mmHg 64%
    17:00 +24°C° 0 mm 3 mps 741 mmHg 65%
    18:00 +22°C° 0 mm 3 mps 741 mmHg 65%
    19:00 +22°C° 0 mm 3 mps 742 mmHg 66%
    20:00 +22°C° 0 mm 3 mps 742 mmHg 66%
    21:00 +22°C° 0 mm 3 mps 742 mmHg 67%
    22:00 +21°C° 0 mm 3 mps 742 mmHg 67%
    23:00 +21°C° 0 mm 3 mps 742 mmHg 67%

    Day after tomorrow, 25 September, Tuesday

    Time Temperature Precipitation Wind Pressure Humidity
    00:00 +21°C° 0 mm 3 mps 741 mmHg 67%
    01:00 +21°C° 0 mm 3 mps 741 mmHg 67%
    02:00 +20°C° 0 mm 4 mps 741 mmHg 67%
    03:00 +20°C° 0 mm 4 mps 740 mmHg 67%
    04:00 +20°C° 0 mm 4 mps 740 mmHg 67%
    05:00 +20°C° 0 mm 4 mps 740 mmHg 67%
    06:00 +20°C° 0 mm 4 mps 740 mmHg 66%
    07:00 +20°C° 0 mm 5 mps 741 mmHg 63%
    08:00 +21°C° 0 mm 5 mps 741 mmHg 60%
    09:00 +22°C° 0 mm 5 mps 741 mmHg 56%
    10:00 +23°C° 0 mm 5 mps 741 mmHg 53%
    11:00 +26°C° 0 mm 4 mps 741 mmHg 50%
    12:00 +27°C° 0 mm 4 mps 741 mmHg 47%
    13:00 +27°C° 0 mm 5 mps 740 mmHg 48%
    14:00 +27°C° 0 mm 5 mps 740 mmHg 48%
    15:00 +27°C° 0 mm 5 mps 740 mmHg 49%
    16:00 +26°C° 0 mm 6 mps 740 mmHg 54%
    17:00 +24°C° 0 mm 6 mps 740 mmHg 60%
    18:00 +23°C° 0 mm 6 mps 740 mmHg 65%
    19:00 +22°C° 0 mm 6 mps 740 mmHg 67%
    20:00 +22°C° 0 mm 6 mps 740 mmHg 69%
    21:00 +21°C° 0 mm 6 mps 740 mmHg 71%
    22:00 +21°C° 0 mm 5 mps 740 mmHg 72%
    23:00 +21°C° 0 mm 5 mps 740 mmHg 74%

    26 September, Wednesday

    Time Temperature Precipitation Wind Pressure Humidity
    00:00 +20°C° 0 mm 5 mps 740 mmHg 75%
    01:00 +20°C° 0 mm 5 mps 740 mmHg 76%
    02:00 +20°C° 0 mm 5 mps 740 mmHg 77%
    03:00 +20°C° 0 mm 5 mps 739 mmHg 78%
    04:00 +20°C° 0 mm 5 mps 739 mmHg 78%
    05:00 +20°C° 0 mm 5 mps 740 mmHg 78%
    06:00 +20°C° 0 mm 4 mps 740 mmHg 78%
    07:00 +21°C° 0 mm 5 mps 740 mmHg 74%
    08:00 +22°C° 0 mm 5 mps 740 mmHg 69%
    09:00 +23°C° 0 mm 5 mps 740 mmHg 64%
    10:00 +24°C° 0 mm 6 mps 740 mmHg 60%
    11:00 +26°C° 0 mm 6 mps 740 mmHg 56%
    12:00 +27°C° 0 mm 6 mps 740 mmHg 52%
    13:00 +27°C° 0 mm 7 mps 740 mmHg 51%
    14:00 +27°C° 0 mm 7 mps 740 mmHg 50%
    15:00 +27°C° 0 mm 7 mps 739 mmHg 49%
    16:00 +26°C° 0 mm 7 mps 739 mmHg 52%
    17:00 +26°C° 0 mm 7 mps 739 mmHg 56%
    18:00 +24°C° 0 mm 7 mps 739 mmHg 59%
    19:00 +23°C° 0 mm 7 mps 740 mmHg 61%
    20:00 +22°C° 0 mm 7 mps 740 mmHg 63%
    21:00 +22°C° 0 mm 7 mps 740 mmHg 66%
    22:00 +22°C° 0 mm 7 mps 740 mmHg 68%
    23:00 +21°C° 0 mm 6 mps 740 mmHg 70%

    27 September, Thursday

    Time Temperature Precipitation Wind Pressure Humidity
    00:00 +21°C° 0 mm 6 mps 740 mmHg 72%
    01:00 +21°C° 0 mm 6 mps 740 mmHg 72%
    02:00 +20°C° 0 mm 6 mps 740 mmHg 72%
    03:00 +20°C° 0 mm 6 mps 740 mmHg 72%
    04:00 +20°C° 0 mm 5 mps 740 mmHg 72%
    05:00 +20°C° 0 mm 5 mps 740 mmHg 72%
    06:00 +19°C° 0 mm 5 mps 740 mmHg 72%
    07:00 +20°C° 0 mm 5 mps 740 mmHg 68%
    08:00 +21°C° 0 mm 5 mps 741 mmHg 64%
    09:00 +22°C° 0 mm 5 mps 741 mmHg 61%
    10:00 +25°C° 0 mm 5 mps 741 mmHg 58%
    11:00 +26°C° 0 mm 6 mps 740 mmHg 55%
    12:00 +27°C° 0 mm 6 mps 740 mmHg 52%
    13:00 +28°C° 0 mm 6 mps 740 mmHg 52%
    14:00 +28°C° 0 mm 6 mps 739 mmHg 52%
    15:00 +28°C° 0 mm 6 mps 739 mmHg 52%
    16:00 +27°C° 0 mm 6 mps 739 mmHg 56%
    17:00 +26°C° 0 mm 6 mps 739 mmHg 60%
    18:00 +26°C° 0 mm 6 mps 740 mmHg 63%
    19:00 +24°C° 0 mm 6 mps 740 mmHg 65%
    20:00 +23°C° 0 mm 5 mps 740 mmHg 67%
    21:00 +23°C° 0 mm 5 mps 740 mmHg 69%
    22:00 +23°C° 0 mm 5 mps 740 mmHg 70%
    23:00 +22°C° 0 mm 5 mps 740 mmHg 71%

    28 September, Friday

    Time Temperature Precipitation Wind Pressure Humidity
    00:00 +22°C° 0 mm 4 mps 739 mmHg 72%
    01:00 +22°C° 0 mm 4 mps 739 mmHg 74%
    02:00 +22°C° 0 mm 4 mps 739 mmHg 76%
    03:00 +22°C° 0 mm 4 mps 739 mmHg 78%
    04:00 +21°C° 0 mm 4 mps 739 mmHg 79%
    05:00 +21°C° 0 mm 4 mps 739 mmHg 80%
    06:00 +21°C° 0 mm 4 mps 739 mmHg 82%
    07:00 +22°C° 0 mm 4 mps 739 mmHg 78%
    08:00 +23°C° 0 mm 4 mps 739 mmHg 74%
    09:00 +25°C° 0 mm 4 mps 739 mmHg 70%
    10:00 +26°C° 0 mm 4 mps 739 mmHg 66%
    11:00 +28°C° 0 mm 4 mps 739 mmHg 62%
    12:00 +29°C° 0 mm 4 mps 739 mmHg 58%
    13:00 +28°C° 0 mm 4 mps 738 mmHg 60%
    14:00 +28°C° 0 mm 4 mps 738 mmHg 62%
    15:00 +27°C° 0 mm 4 mps 737 mmHg 64%
    16:00 +27°C° 0.1 mm 4 mps 738 mmHg 67%
    17:00 +26°C° 0.1 mm 4 mps 738 mmHg 71%
    18:00 +25°C° 0.1 mm 4 mps 738 mmHg 74%
    19:00 +25°C° 0.8 mm 4 mps 738 mmHg 77%
    20:00 +23°C° 0.8 mm 4 mps 738 mmHg 80%
    21:00 +24°C° 0.8 mm 3 mps 739 mmHg 82%
    22:00 +24°C° 2 mm 3 mps 738 mmHg 84%
    23:00 +24°C° 2 mm 3 mps 738 mmHg 86%
    Show more